Location: Igri�s
(42.2144°N, 0.4320°W)
Time: 17:49:30
(UTC+00:00)

Resurs 01 Rocket - Pass Details

Date: 13 August 2020
Orbit: 635 x 644 km, 98.0° (Epoch: 18 September)

Event Time Altitude Azimuth Distance (km) Brightness Sun altitude
Exits shadow 19:47:47 10° 128° (SE) 2,046 3.6 -8.1°
Reaches altitude 10° 19:47:50 10° 127° (SE) 2,024 3.5 -8.1°
Maximum altitude 19:51:37 29° 68° (ENE) 1,185 2.7 -8.7°
Drops below altitude 10° 19:55:26 10° 9° (N) 2,042 4.5 -9.3°
Sets 19:57:52 0° 358° (N) 2,957 5.5 -9.7°
